Terminal Aerodrome Forecast
Issued by NWS Mt. Holly, NJ

Home | Current Version | Previous Version | Text Only | Print | Product List | Glossary On
Versions: 1 2 3 4 5 6 7 8 9 10 11 12 13 14 15 16 17 18 19 20 21 22
000
FTUS41 KPHI 222300
TAFPHL
TAF
KPHL 222320Z 2300/2406 20006KT P6SM FEW050
      TEMPO 2310/2312 5SM BR
     FM231300 23010KT P6SM FEW040
     FM240000 20010KT P6SM SCT050 BKN200
      TEMPO 2400/2403 5SM -TSRA BKN050CB=

USA.gov is the U.S. government's official web portal to all federal, state and local government web resources and services.